Regional Weather Roundup
Issued by NWS

Home | Current Version | Previous Version | Text Only | Print | Product List | Glossary On
Versions: 1 2 3 4 5 6 7 8 9 10 11 12 13 14 15 16 17 18 19 20 21 22 23 24 25 26 27 28 29 30 31 32 33 34 35 36 37 38 39 40 41 42 43 44 45 46 47 48 49 50
000
ASUS43 KFSD 171410
RWRSD

WEATHER ROUNDUP FOR SOUTH DAKOTA
NATIONAL WEATHER SERVICE SIOUX FALLS SD
800 AM CST WED DEC 17 2014

NOTE: "FAIR" INDICATES FEW OR NO CLOUDS BELOW 12,000 FEET WITH NO
SIGNIFICANT WEATHER AND/OR OBSTRUCTIONS TO VISIBILITY.


SDZ001>005-009-010-012>017-171500-
NORTHWEST AND NORTH CENTRAL SOUTH DAKOTA

CITY           SKY/WX    TMP DP  RH WIND       PRES   REMARKS
BUFFALO          N/A     17  14  88 SE14      30.00S WCI   3
FAITH            N/A     16  13  88 SE15      30.14S WCI   1
MOBRIDGE       CLOUDY    16  11  80 SE12      30.24S WCI   3
$$

SDZ012>016-024>037-041>051-057-063-072>074-171500-
SOUTHWEST AND SOUTH CENTRAL SOUTH DAKOTA

CITY           SKY/WX    TMP DP  RH WIND       PRES   REMARKS
RAPID CTY ARPT CLOUDY    19  17  92 SE10      30.05S WCI   7
PIERRE         CLOUDY    16  13  88 SE13      30.25S WCI   2
CUSTER         MOCLDY    19  15  84 CALM      29.90S
ELLSWORTH AFB  CLOUDY    18  16  93 S8        30.04S FOG     WCI   7
PHILIP         CLOUDY    19  15  84 SE14      30.16F WCI   6
PINE RIDGE     CLOUDY    23  19  85 S6        30.05R WCI  16
SPEARFISH      CLOUDY    16  14  93 CALM      30.00R FOG
WINNER         CLOUDY    19  15  84 SE9       30.24S WCI   8
$$

SDZ004>011-016>023-039-040-171500-
NORTHEAST SOUTH DAKOTA

CITY           SKY/WX    TMP DP  RH WIND       PRES   REMARKS
ABERDEEN       PTCLDY     2  -4  76 CALM      30.35R
WATERTOWN      PTCLDY     1  -3  83 CALM      30.29S
SISSETON         N/A      0  -3  87 NW6       30.34F WCI -12
$$

SDZ017-020-022-023-036>040-048>070-171500-
SOUTHEAST SOUTH DAKOTA

CITY           SKY/WX    TMP DP  RH WIND       PRES   REMARKS
SIOUX FALLS    PTCLDY    -1  -2  95 CALM      30.32R
HURON          CLOUDY    -2  -5  87 SW6       30.35R FOG     WCI -14
CHAMBERLAIN    CLOUDY    16  12  86 SE10      30.28F WCI   3
MITCHELL       PTCLDY     2  -1  88 CALM      30.35S
YANKTON        MOCLDY     9   7  92 CALM      30.36R
$$

ABBREVIATIONS USED IN REMARKS
   TC - TEMPERATURE IN CELSIUS
  WCI - WIND CHILL INDEX
   HX - HEAT INDEX
  VSB - VISIBILITY



USA.gov is the U.S. government's official web portal to all federal, state and local government web resources and services.